Regional Weather Roundup
Issued by NWS

Home | Current Version | Previous Version | Text Only | Print | Product List | Glossary Off
Versions: 1 2 3 4 5 6 7 8 9 10 11 12 13 14 15 16 17 18 19 20 21 22 23 24 25 26 27 28 29 30 31 32 33 34 35 36 37 38 39 40 41 42 43 44 45 46 47 48 49 50

000
ASUS43 KIND 301459
RWRIN

WEATHER ROUNDUP FOR INDIANA
NATIONAL WEATHER SERVICE INDIANAPOLIS IN
1100 AM EDT FRI SEP 30 2016

NOTE: "FAIR" INDICATES FEW OR NO CLOUDS BELOW 12,000 FEET WITH NO
SIGNIFICANT WEATHER AND/OR OBSTRUCTIONS TO VISIBILITY.

* - STATION DOES NOT REPORT WEATHER SUCH AS PRECIPITATION OR FOG.

+ - STATION NOT QUALITY CONTROLLED BY THE NATIONAL WEATHER SERVICE.
    USE DATA WITH CAUTION...ESPECIALLY DEWPOINT AND RELATIVE
    HUMIDITY OBSERVATIONS.

INZ001>003-010>013-019-020-301600-
NORTHWEST INDIANA

CITY           SKY/WX    TMP DP  RH WIND       PRES   REMARKS
GARY /AIRPORT/ CLOUDY    63  61  94 NE12G24   30.14R
KNOX *+        CLOUDY    61  46  59 NE12      30.10S
MONTICELLO +   CLOUDY    61  57  86 NE8       30.07R
RENSSELAER +   RAIN      61  61 100 N7        30.10R

$$

LMZ046-743>745-301600-
SOUTHERN LAKE MICHIGAN

STATION/POSITION TIME  TEMP    WIND        PRES    WAVE
                       AIR SEA DIR/SP/G            HT
                 (UTC) (F)     (DEG/KT/KT) (MB)    (FT)
BURNS HARBOR     1430   61      40/ 18/ 24 1020.3R
MICHIGAN CITY    1430   60      20/ 19/ 21   N/A
5NW MICH CITY    1450   61 64   50/ 16/ 21   N/A     6

$$

INZ004-005-014>016-021>024-301600-
NORTH CENTRAL INDIANA

CITY           SKY/WX    TMP DP  RH WIND       PRES   REMARKS
GOSHEN         CLOUDY    63  58  83 NE10      30.11F
SOUTH BEND     CLOUDY    62  59  90 NE9       30.13R
WARSAW +       CLOUDY    61  61 100 E12       30.10R

$$

INZ006>009-017-018-025>027-301600-
NORTHEAST INDIANA

CITY           SKY/WX    TMP DP  RH WIND       PRES   REMARKS
ANGOLA *+        N/A     63  52  67 E9        30.11F
AUBURN +       CLOUDY    61  59  94 NE12      30.11S FOG
FORT WAYNE     LGT RAIN  61  58  90 NE12      30.08S FOG
KENDALLVILLE + CLOUDY    61  60  96 E8        30.12F

$$

INZ028-029-035-036-043>045-051>053-301600-
WEST CENTRAL INDIANA

CITY           SKY/WX    TMP DP  RH WIND       PRES   REMARKS
CRAWFORDSVL +  PTSUNNY   59  59 100 N6        30.05S
GREENCASTLE +  CLOUDY    61  61 100 NE5       30.05S
LAFAYETTE      NOT AVBL
TERRE HAUTE    CLOUDY    62  59  90 N8        30.04S

$$

INZ030>032-037>040-046>048-054>057-064-065-301600-
CENTRAL INDIANA

CITY           SKY/WX    TMP DP  RH WIND       PRES   REMARKS
ANDERSON       LGT RAIN  59  59 100 CALM      30.06R
COLUMBUS       CLOUDY    59  59 100 NE3       30.04S
FRANKFORT +    CLOUDY    63  61  94 E5        30.08R FOG
INDIANAPOLIS   CLOUDY    63  58  83 NE5       30.04S
-EAGLE CREEK   PTSUNNY   63  57  81 NE5       30.05R
KOKOMO *+      LGT RAIN  61  60  97 NE13      30.07S FOG
MT COMFORT *+  CLOUDY    59  57  94 NE3       30.06R
SHELBYVILLE    LGT RAIN  62  57  83 NE5       30.04R
ZIONSVILLE +   CLOUDY    59  57  93 E6        30.07R

$$

INZ033-034-041-042-049-050-058-059-301600-
EAST CENTRAL INDIANA

CITY           SKY/WX    TMP DP  RH WIND       PRES   REMARKS
MUNCIE         CLOUDY    64  61  90 NE10      30.04F

$$

INZ060-061-067>069-081>083-085>088-301600-
SOUTHWEST INDIANA

CITY           SKY/WX    TMP DP  RH WIND       PRES   REMARKS
EVANSVILLE     CLOUDY    64  57  78 VRB7      30.04S
HUNTINGBURG *+   N/A     57  54  88 CALM      30.04S

$$

INZ062-063-066-070>080-084-089>092-301600-
SOUTH CENTRAL AND SOUTHEAST INDIANA

CITY           SKY/WX    TMP DP  RH WIND       PRES   REMARKS
BLOOMINGTON    CLOUDY    61  55  81 E7        30.05R
MADISON *+     PTSUNNY   59  52  77 SW3       30.06S
SEYMOUR +      PTSUNNY   61  57  88 CALM      30.05R

$$





USA.gov is the U.S. government's official web portal to all federal, state and local government web resources and services.